Temperatura - Umidità - Pioggia orarie del 29-03-2020

Intensità - Direzione vento orarie del 29-03-2020

Dati orari da stazione meteo del 29-03-2020

Nome Stazione Data Ora Temperatura [°C] Umidità [%] Pioggia [mm] Pressione[hPa] Intensità vento[km/h] Direzione vento [°]
Mondovì 28-03-2020 01:00 6.4 84 0 1025.2 7.6 182
Mondovì 28-03-2020 01:20 7.1 86 0 1025.2 5 210
Mondovì 28-03-2020 01:30 6.3 87 0 1025.3 4.3 332
Mondovì 28-03-2020 01:40 6.2 88 0 1025.3 4.3 26
Mondovì 28-03-2020 01:50 6 90 0 1025.3 2.5 3
Mondovì 28-03-2020 02:00 5.8 92 0 1025.3 6.1 291
Mondovì 28-03-2020 02:10 5.7 93 0.2 1025.3 3.6 247
Mondovì 28-03-2020 02:20 5.6 94 0 1025.3 3.2 208
Mondovì 28-03-2020 02:30 5.7 94 0 1025.3 7.6 167
Mondovì 28-03-2020 02:40 6.1 93 0 1025.3 7.6 181
Mondovì 28-03-2020 02:50 6.1 92 0 1025.3 5.8 269
Mondovì 28-03-2020 03:00 6 92 0 1025.3 2.9 188
Mondovì 28-03-2020 03:10 6.1 92 0 1025.3 5.4 183
Mondovì 28-03-2020 03:20 6.1 91 0 1025.3 4 220
Mondovì 28-03-2020 03:30 6 91 0 1025.3 4.3 207
Mondovì 28-03-2020 03:40 6 91 0 1025.3 4.7 184
Mondovì 28-03-2020 03:50 6.2 90 0 1025.3 7.9 144
Mondovì 28-03-2020 04:00 6.3 89 0 1025.3 6.5 172
Mondovì 28-03-2020 04:10 6.4 87 0 1025.3 6.8 177
Mondovì 28-03-2020 04:20 6.4 87 0 1025.3 5.4 193
Mondovì 28-03-2020 04:30 6.5 87 0 1025.3 6.8 184
Mondovì 28-03-2020 04:40 6.5 86 0 1025.3 7.2 190
Mondovì 28-03-2020 04:50 6.5 86 0 1025.3 7.9 194
Mondovì 28-03-2020 05:00 6.6 86 0 1025.3 5.4 172
Mondovì 28-03-2020 05:10 6.4 86 0 1025.3 5.4 182
Mondovì 28-03-2020 05:20 6.4 87 0 1025.3 6.1 180
Mondovì 28-03-2020 05:30 6.5 87 0 1025.3 5.8 183
Mondovì 28-03-2020 05:40 6.4 89 0 1025.3 2.9 263
Mondovì 28-03-2020 05:50 6.2 90 0 1025.3 1.8 258
Mondovì 28-03-2020 06:00 6 90 0 1025.3 3.6 187
Mondovì 28-03-2020 06:10 6.4 89 0 1025.3 6.5 179
Mondovì 28-03-2020 06:20 6.6 86 0 1025.3 7.2 168
Mondovì 28-03-2020 06:30 6.7 85 0 1025.3 7.2 185
Mondovì 28-03-2020 06:40 6.8 84 0 1025.3 8.6 176
Mondovì 28-03-2020 06:50 6.8 84 0 1025.3 7.2 193
Mondovì 28-03-2020 07:00 6.8 84 0 1025.3 6.8 198
Mondovì 28-03-2020 07:10 7 84 0 1025.3 7.9 181
Mondovì 28-03-2020 07:20 7.2 83 0 1025.2 10.8 183
Mondovì 28-03-2020 07:30 7.7 81 0 1025.2 8.6 182
Mondovì 28-03-2020 07:40 7.8 80 0 1025.2 7.6 178
Mondovì 28-03-2020 07:50 8 80 0 1025.2 6.5 188
Mondovì 28-03-2020 08:00 8.2 79 0 1025.2 6.5 184
Mondovì 28-03-2020 08:10 8.6 78 0 1025.1 9 178
Mondovì 28-03-2020 08:20 9.2 76 0 1025.1 8.3 180
Mondovì 28-03-2020 08:30 10.1 74 0 1025.1 8.3 184
Mondovì 28-03-2020 08:40 11.2 72 0 1025 11.2 193
Mondovì 28-03-2020 08:50 11.9 68 0 1025 9.7 185
Mondovì 28-03-2020 09:00 13.7 67 0 1024.9 9.7 225
Mondovì 28-03-2020 09:10 14.1 61 0 1024.8 11.9 225
Mondovì 28-03-2020 09:20 14.1 59 0 1024.6 11.2 229
Mondovì 28-03-2020 09:30 15 57 0 1024.5 12.6 231
Mondovì 28-03-2020 09:40 15.5 57 0 1024.4 13.3 258
Mondovì 28-03-2020 09:50 15.9 57 0 1024.3 8.3 270
Mondovì 28-03-2020 10:00 15.5 58 0 1024.2 10.4 285
Mondovì 28-03-2020 10:10 16.3 54 0 1024.1 9.7 267
Mondovì 28-03-2020 10:20 17.2 50 0 1024 8.6 252
Mondovì 28-03-2020 10:30 17.2 49 0 1023.8 9.4 263
Mondovì 28-03-2020 10:40 16.7 50 0 1023.7 7.2 320
Mondovì 28-03-2020 10:50 16.9 51 0 1023.6 9 331
Mondovì 28-03-2020 11:00 16.9 49 0 1023.5 8.3 319
Mondovì 28-03-2020 11:10 17.1 48 0 1023.5 9.4 332
Mondovì 28-03-2020 11:20 17.3 50 0 1023.4 10.8 292
Mondovì 28-03-2020 11:30 16.9 46 0 1023.3 9.7 11
Mondovì 28-03-2020 11:40 17 47 0 1023.2 9 27
Mondovì 28-03-2020 11:50 17.5 47 0 1023.2 10.1 267
Mondovì 28-03-2020 12:00 17.5 46 0 1023.2 8.3 298
Mondovì 28-03-2020 12:10 17.7 45 0 1023.1 11.2 293
Mondovì 28-03-2020 12:20 17.7 46 0 1023.1 7.6 141
Mondovì 28-03-2020 12:30 17.8 46 0 1023 13 13
Mondovì 28-03-2020 12:40 17.7 47 0 1023 10.8 351
Mondovì 28-03-2020 12:50 18 43 0 1023 10.4 357
Mondovì 28-03-2020 13:00 18.6 45 0 1023 10.1 10
Mondovì 28-03-2020 13:10 18.7 44 0 1023 12.2 342
Mondovì 28-03-2020 13:20 19.3 46 0 1023 10.8 33
Mondovì 28-03-2020 13:30 18.8 43 0 1023 8.6 315
Mondovì 28-03-2020 13:40 19.3 44 0 1023 7.9 301
Mondovì 28-03-2020 13:50 19.4 45 0 1023 13 351
Mondovì 28-03-2020 14:00 18.7 43 0 1023 14 11
Mondovì 28-03-2020 14:10 18.8 45 0 1022.9 15.1 26
Mondovì 28-03-2020 14:20 18.6 44 0 1022.9 12.6 35
Mondovì 28-03-2020 14:30 19.1 44 0 1022.9 9 60
Mondovì 28-03-2020 14:40 18.7 45 0 1022.9 13 40
Mondovì 28-03-2020 14:50 19.3 44 0 1022.9 10.4 60
Mondovì 28-03-2020 15:00 19.3 44 0 1022.9 14.8 34
Mondovì 28-03-2020 15:10 19.6 42 0 1022.9 10.4 19
Mondovì 28-03-2020 15:20 19.9 43 0 1022.8 14 355
Mondovì 28-03-2020 15:30 19.8 43 0 1022.8 8.3 39
Mondovì 28-03-2020 15:40 19.4 43 0 1022.8 9.4 28
Mondovì 28-03-2020 15:50 18.4 46 0 1022.8 8.6 71
Mondovì 28-03-2020 16:00 18 45 0 1022.8 7.6 44
Mondovì 28-03-2020 16:10 17.7 46 0 1022.9 7.9 38
Mondovì 28-03-2020 16:20 17.1 46 0 1023 6.1 37
Mondovì 28-03-2020 16:30 17.4 46 0 1023 5 55
Mondovì 28-03-2020 16:40 18 42 0 1023.1 5.8 70
Mondovì 28-03-2020 16:50 19.1 40 0 1023.1 5.4 70
Mondovì 28-03-2020 17:00 19.2 40 0 1023.1 7.2 124
Mondovì 28-03-2020 17:10 19.3 38 0 1023.1 5.4 122
Mondovì 28-03-2020 17:20 18.7 43 0 1023.1 4 97
Mondovì 28-03-2020 17:30 17.9 45 0 1023.1 5.8 145
Mondovì 28-03-2020 17:40 16.8 42 0 1023.1 6.1 168
Mondovì 28-03-2020 17:50 16.4 46 0 1023.2 4.3 137
Mondovì 28-03-2020 18:00 16 48 0 1023.3 3.6 91
Mondovì 28-03-2020 18:10 15.7 48 0 1023.4 2.9 112
Mondovì 28-03-2020 18:20 15.6 48 0 1023.5 3.6 92
Mondovì 28-03-2020 18:30 15.2 50 0 1023.6 3.2 98
Mondovì 28-03-2020 18:40 14.4 53 0 1023.7 3.2 103
Mondovì 28-03-2020 18:50 13.5 55 0 1023.7 3.2 70
Mondovì 28-03-2020 19:00 12.8 55 0 1023.8 1.4 8
Mondovì 28-03-2020 19:10 12.2 60 0 1023.9 5.4 36
Mondovì 28-03-2020 19:20 12.4 60 0 1024 6.8 188
Mondovì 28-03-2020 19:30 12.2 65 0 1024.1 5.4 212
Mondovì 28-03-2020 19:40 11.6 65 0 1024.2 6.8 204
Mondovì 28-03-2020 19:50 11.6 64 0 1024.2 7.9 190
Mondovì 28-03-2020 20:00 11.6 64 0 1024.3 7.2 190
Mondovì 28-03-2020 20:10 11.4 65 0 1024.3 6.1 192
Mondovì 28-03-2020 20:20 11 65 0 1024.4 5.4 188
Mondovì 28-03-2020 20:30 10.8 65 0 1024.4 5 187
Mondovì 28-03-2020 20:40 10.5 66 0 1024.5 4 176
Mondovì 28-03-2020 20:50 10.1 69 0 1024.5 5.4 230
Mondovì 28-03-2020 21:00 9.3 69 0 1024.6 6.8 260
Mondovì 28-03-2020 21:10 9.1 70 0 1024.6 4.7 229
Mondovì 28-03-2020 21:20 8.7 70 0 1024.7 5.4 160
Mondovì 28-03-2020 21:30 8.7 70 0 1024.7 5 190
Mondovì 28-03-2020 21:40 8.8 70 0 1024.8 5.8 189
Mondovì 28-03-2020 21:50 8.5 73 0 1024.8 4 208
Mondovì 28-03-2020 22:00 7.9 74 0 1024.9 4.7 208
Mondovì 28-03-2020 22:10 7.4 75 0 1024.9 5.4 204
Mondovì 28-03-2020 22:20 7.3 76 0 1025 5.4 218
Mondovì 28-03-2020 22:30 6.9 76 0 1025 4.7 206
Mondovì 28-03-2020 22:40 7.1 76 0 1025.1 3.6 200
Mondovì 28-03-2020 22:50 7.1 75 0 1025.1 5.4 201
Mondovì 28-03-2020 23:00 6.8 77 0 1025.1 4.3 258
Mondovì 28-03-2020 23:10 6.3 77 0 1025.2 3.6 337
Mondovì 28-03-2020 23:20 6.1 79 0 1025.2 2.9 337
Mondovì 28-03-2020 23:30 5.8 80 0 1025.2 2.9 31
Mondovì 28-03-2020 23:40 5.9 79 0 1025.3 4.7 180
Mondovì 28-03-2020 23:50 5.6 81 0 1025.3 4.7 232
Mondovì 29-03-2020 00:00 5.3 82 0 1025.3 4 266
Mondovì 29-03-2020 00:10 5.2 83 0 1025.4 3.6 230
Mondovì 29-03-2020 00:20 4.6 84 0 1025.4 3.6 220
Mondovì 29-03-2020 00:30 4.8 83 0 1025.4 3.6 196
Mondovì 29-03-2020 00:40 5.2 83 0 1025.5 5.8 169
Mondovì 29-03-2020 00:50 5.4 81 0 1025.5 5 189
Mondovì 29-03-2020 01:00 6.3 80 0 1025.5 7.6 180
Mondovì 29-03-2020 01:20 6.8 76 0 1025.5 6.8 182
Mondovì 29-03-2020 01:30 6.2 75 0 1025.5 6.5 176
Mondovì 29-03-2020 01:40 6 77 0 1025.5 5 214
Mondovì 29-03-2020 01:50 5.3 80 0 1025.5 3.2 227
Mondovì 29-03-2020 03:00 4.7 81 0 1025.5 4.3 218
Mondovì 29-03-2020 03:10 4.4 82 0 1025.5 4.3 210
Mondovì 29-03-2020 03:20 4.4 82 0 1025.6 5 234
Mondovì 29-03-2020 03:30 4.2 83 0 1025.6 5.8 238
Mondovì 29-03-2020 03:40 3.9 85 0 1025.6 5.4 210
Mondovì 29-03-2020 03:50 5.6 85 0 1025.6 5.8 183
Mondovì 29-03-2020 05:00 5.7 78 0 1025.6 5 201
Mondovì 29-03-2020 05:10 4 83 0 1025.7 3.2 245

Riassuntivo giornaliero del 29-03-2020